Pellston, MI

7:05 PM EDT on July 23, 2017 (GMT -0400)
Pellston Regional Airport Of Emmet County

Weather History for KPLN - November, 2012

Change the Weather History Date:

Sunday, November 4, 2012

  Actual Average Record
Temperature  
Mean Temperature 32 °F -  
Max Temperature 39 °F 45 °F 73 °F (1964)
Min Temperature 28 °F 30 °F 10 °F (1966)
Degree Days  
Heating Degree Days 32    
Moisture  
Dew Point 25 °F    
Average Humidity 73    
Maximum Humidity 85    
Minimum Humidity 60    
Precipitation  
Precipitation 0.00 in - - ()
Sea Level Pressure  
Sea Level Pressure 30.24 in    
Wind  
Wind Speed 3 mph (North)    
Max Wind Speed 9 mph    
Max Gust Speed -    
Visibility 10 miles    
Events      
Averages and records for this station are not official NWS values.
T = Trace of Precipitation, MM = Missing Value Source: NWS Daily Summary

Daily Weather History Graph

Daily Weather History Graph

Search for Another Location

Airport or City:

Trip Planner

Search our weather history database for the weather conditions in past years. The results will help you decide how hot, cold, wet, or windy it might be!

Date:

Astronomy

Nov. 04, 2012 Rise Set
Actual Time 7:23 AM EST 5:21 PM EST
Civil Twilight 6:52 AM EST 5:52 PM EST
Nautical Twilight 6:17 AM EST 6:27 PM EST
Astronomical Twilight 5:42 AM EST 7:02 PM EST
Moon 9:56 PM EST (11/4) 12:10 PM EST (11/4)
Length of Visible Light 10h 59m
Length of Day
9h 57m
Waning Gibbous, 72% of the Moon is Illuminated
Nov 4
Waning Gibbous
Nov 6
Last Quarter
Nov 13
New
Nov 20
First Quarter
Nov 28
Full

Hourly Weather History & Observations

Time (EST) Temp. Windchill Dew Point Humidity Pressure Visibility Wind Dir Wind Speed Gust Speed Precip Events Conditions
12:54 AM 30.0 °F - 25.0 °F 82% 30.24 in 10.0 mi Calm Calm - N/A   Overcast
1:54 AM 28.0 °F - 24.1 °F 85% 30.24 in 10.0 mi Calm Calm - N/A   Mostly Cloudy
1:54 AM 30.9 °F - 27.0 °F 85% 30.24 in 10.0 mi Calm Calm - N/A   Overcast
2:54 AM 33.1 °F 28.7 °F 26.1 °F 75% 30.24 in 10.0 mi NW 4.6 mph - N/A   Overcast
3:54 AM 32.0 °F - 26.1 °F 79% 30.25 in 10.0 mi Calm Calm - N/A   Overcast
4:54 AM 33.1 °F - 25.0 °F 72% 30.24 in 10.0 mi Calm Calm - N/A   Overcast
5:54 AM 32.0 °F - 26.1 °F 79% 30.24 in 10.0 mi Calm Calm - N/A   Overcast
6:54 AM 32.0 °F - 26.1 °F 79% 30.25 in 10.0 mi Calm Calm - N/A   Overcast
7:54 AM 32.0 °F - 26.1 °F 79% 30.26 in 10.0 mi Calm Calm - N/A   Overcast
8:54 AM 33.1 °F 28.7 °F 26.1 °F 75% 30.26 in 10.0 mi NNE 4.6 mph - N/A   Overcast
9:54 AM 34.0 °F 28.8 °F 26.1 °F 73% 30.26 in 10.0 mi North 5.8 mph - N/A   Overcast
10:54 AM 36.0 °F 30.3 °F 26.1 °F 67% 30.25 in 10.0 mi NNW 6.9 mph - N/A   Overcast
11:54 AM 36.0 °F 29.6 °F 26.1 °F 67% 30.25 in 10.0 mi NNW 8.1 mph - N/A   Mostly Cloudy
12:11 PM 35.6 °F 30.7 °F 26.6 °F 70% 30.22 in 10.0 mi North 5.8 mph - N/A   Scattered Clouds
12:54 PM 35.1 °F 28.6 °F 26.1 °F 70% 30.24 in 10.0 mi North 8.1 mph - N/A   Scattered Clouds
1:18 PM 35.6 °F 28.6 °F 24.8 °F 65% 30.20 in 10.0 mi North 9.2 mph - N/A   Mostly Cloudy
1:28 PM 35.6 °F 30.7 °F 24.8 °F 65% 30.20 in 10.0 mi North 5.8 mph - N/A   Scattered Clouds
1:54 PM 36.0 °F 29.6 °F 25.0 °F 64% 30.22 in 10.0 mi North 8.1 mph - N/A   Partly Cloudy
2:54 PM 37.9 °F 32.7 °F 25.0 °F 60% 30.22 in 10.0 mi NW 6.9 mph - N/A   Clear
3:54 PM 37.0 °F 33.3 °F 25.0 °F 62% 30.22 in 10.0 mi NW 4.6 mph - N/A   Clear
4:54 PM 36.0 °F 32.1 °F 25.0 °F 64% 30.22 in 10.0 mi NNE 4.6 mph - N/A   Clear
5:54 PM 30.9 °F - 23.0 °F 72% 30.23 in 10.0 mi Calm Calm - N/A   Clear
6:11 PM 30.2 °F - 23.0 °F 75% 30.20 in 10.0 mi Calm Calm - N/A   Mostly Cloudy
6:54 PM 30.9 °F - 25.0 °F 79% 30.24 in 10.0 mi Calm Calm - N/A   Overcast
7:54 PM 34.0 °F 26.6 °F 27.0 °F 75% 30.25 in 10.0 mi North 9.2 mph - N/A   Overcast
8:54 PM 33.1 °F 28.7 °F 26.1 °F 75% 30.25 in 10.0 mi NNW 4.6 mph - N/A   Overcast
9:54 PM 32.0 °F 27.5 °F 25.0 °F 75% 30.25 in 10.0 mi NNW 4.6 mph - N/A   Overcast
10:54 PM 32.0 °F 27.5 °F 26.1 °F 79% 30.25 in 10.0 mi North 4.6 mph - N/A   Overcast